User: anonymous   Login
Location: Unspecified
(0.0000°N, 0.0000°E)
Time: 19:15:19
(UTC+00:00)
Language:

TACSAT 4 - Orbit

View from above orbital plane
View from above orbital plane
View from above satellite
View from above satellite

Ground track
Ground track

The orbit data is extracted from the following two-line orbital elements,

1 37818U 11052A   21025.26136264  .00000033  00000-0  50086-4 0  9995
2 37818  63.1275 353.8423 4634411 229.3039 328.5045  6.02836377205288
Epoch (UTC): 25 January 2021 06:16:21
Eccentricity: 0.4634411
inclination: 63.1275°
perigee height: 464 km
apogee height: 12284 km
right ascension of ascending node: 353.8423°
argument of perigee: 229.3039°
revolutions per day: 6.02836377
mean anomaly at epoch: 328.5045°
orbit number at epoch: 20528

The dashed part of the orbit path shows where the satellite is in the earth's shadow,  

DLR